{"data":{"norad_id":63856,"epoch":"2026-09-19T18:29:45.927744Z","epoch_age_seconds":212873,"freshness":"STALE","line1":"1 63856U 25093W   26262.77067046  .00012553  00000+0  46475-3 0  9996","line2":"2 63856  43.0060  61.8763 0000429  88.1862 271.9039 15.27592469 77434","mean_motion":15.27592469,"eccentricity":4.29e-5,"inclination_deg":43.006,"raan_deg":61.8763,"arg_perigee_deg":88.1862,"mean_anomaly_deg":271.9039,"bstar":0.00046475,"rev_number":7743,"period_min":94.265979259682,"perigee_km":482.71741634013,"apogee_km":483.30610290371,"semimajor_km":6861.1487596219,"source":"CELESTRAK","updated_at":"2026-09-21T09:00:35.135077Z"}}